星链-30187 (STARLINK-30187 )

导读 | 星芒AI

STARLINK-30187 是 SpaceX Starlink 卫星互联网项目中的一颗低轨卫星,属于第 11 批 Starlink 卫星(Transporter 5 任务部署)。该卫星于 2023 年 11 月 19 日由猎鹰 9 号火箭发射入轨,运行在约 540 公里的近地轨道,旨在为全球用户提供高速互联网服务。该卫星采用先进的推进和激光通信技术,支持 Starlink 网络的全球覆盖和低延迟通信能力。

基本信息
目录编号:
57473
目录名称:
STARLINK-30187
国际标识:
2023-107S
轨道中心:
EARTH
卫星名称:
星链-30187
卫星全名:
星链-30187 (STARLINK-30187 )
卫星状态:
在轨 (已飞行825 天)
发射日期:
2023-07-28 UTC
国别 :
美国 (US)
星等 :
--
轨道信息
数据来源 国际轨道数据
星历时间: 2025-10-29T20:11:07+0800
1天前
查看轨道信息
半长轴: 6937.263km
偏心率: 0.0001268
轨道倾角: 43.002°
近地点辐角 251.982°
升交点赤经 331.465°
平近点角 108.089°
近地点: 558.248km
远地点: 560.008km
周期: 95.839分钟
每日圈数: 15.025211
详细信息
固有亮度:
5
最大亮度:
0.3
卫星平台:
Starlink v2.0 mini
覆盖范围:
全球
运营商:
太空探索技术公司
运营商所在国:
美国
制造商(研发单位):
太空探索技术公司
制造商所在国:
美国
使用方式:
暂无
卫星简介
星链(Starlink)计划是由太空探索技术公司(SpaceX)提出的一个巨型低轨卫星互联网星座项目,计划在2019年至2024年间在太空搭建由约1.2万颗卫星组成的“星链”网络,其中1584颗将部署在地球上空550千米处的近地轨道,并从2020年开始工作。该卫星仍在工作。
2D轨道图
3D轨道图
轨道高度分析图
轨道倾角分析图
轨道综合分析图
查看轨道综合分析图